{"data":{"norad_id":56710,"epoch":"2026-05-24T22:34:03.482112Z","epoch_age_seconds":76381,"freshness":"FRESH","line1":"1 56710U 23068A   26144.94031808  .00000054  00000+0  10073-3 0  9990","line2":"2 56710  87.9175 279.0779 0002077  88.5739 271.5632 13.20773308146433","mean_motion":13.20773308,"eccentricity":0.0002077,"inclination_deg":87.9175,"raan_deg":279.0779,"arg_perigee_deg":88.5739,"mean_anomaly_deg":271.5632,"bstar":0.00010073,"rev_number":14643,"period_min":109.02703675777,"perigee_km":1180.1974755055,"apogee_km":1183.3378599045,"semimajor_km":7559.904667705,"source":"CELESTRAK","updated_at":"2026-05-25T13:38:22.708007Z"}}